• în România
  • Lista ţărilor
  • Pe 7 zile
  • Temperatura apei
  • Hartă satelitară
  • Meteo pe hartă
  • Widget-uri
  • user-avatar
    Intrare

    Meteo pe oră la Bolshaya Fedorovka

    Astăzi, 15 August, Miercuri

    Timp Temperatura Precipitaţii Vânt Presiune Umiditate
    00:00 +15°C° 0 mm 2 m/s 755 mmHg 81%
    01:00 +15°C° 0 mm 2 m/s 755 mmHg 82%
    02:00 +14°C° 0 mm 2 m/s 755 mmHg 84%
    03:00 +14°C° 0 mm 2 m/s 755 mmHg 85%
    04:00 +15°C° 0 mm 2 m/s 756 mmHg 83%
    05:00 +15°C° 0 mm 2 m/s 756 mmHg 82%
    06:00 +15°C° 0 mm 2 m/s 756 mmHg 80%
    07:00 +17°C° 0 mm 2 m/s 757 mmHg 73%
    08:00 +19°C° 0 mm 3 m/s 757 mmHg 65%
    09:00 +21°C° 0 mm 3 m/s 757 mmHg 58%
    10:00 +22°C° 0 mm 3 m/s 757 mmHg 54%
    11:00 +24°C° 0 mm 3 m/s 757 mmHg 51%
    12:00 +25°C° 0 mm 4 m/s 757 mmHg 47%
    13:00 +25°C° 0 mm 3 m/s 757 mmHg 47%
    14:00 +25°C° 0 mm 3 m/s 757 mmHg 46%
    15:00 +25°C° 0 mm 3 m/s 757 mmHg 46%
    16:00 +24°C° 0 mm 2 m/s 757 mmHg 51%
    17:00 +24°C° 0 mm 2 m/s 757 mmHg 56%
    18:00 +23°C° 0 mm 1 m/s 757 mmHg 60%
    19:00 +21°C° 0 mm 1 m/s 757 mmHg 62%
    20:00 +20°C° 0 mm 1 m/s 757 mmHg 64%
    21:00 +19°C° 0 mm 1 m/s 757 mmHg 65%
    22:00 +18°C° 0 mm 2 m/s 757 mmHg 66%
    23:00 +17°C° 0 mm 2 m/s 757 mmHg 66%

    Mâine, 16 August, Joi

    Timp Temperatura Precipitaţii Vânt Presiune Umiditate
    00:00 +17°C° 0 mm 3 m/s 757 mmHg 66%
    01:00 +17°C° 0 mm 3 m/s 757 mmHg 67%
    02:00 +16°C° 0 mm 3 m/s 757 mmHg 67%
    03:00 +16°C° 0 mm 3 m/s 757 mmHg 67%
    04:00 +17°C° 0 mm 4 m/s 757 mmHg 67%
    05:00 +17°C° 0 mm 4 m/s 757 mmHg 67%
    06:00 +17°C° 0 mm 4 m/s 756 mmHg 67%
    07:00 +19°C° 0 mm 5 m/s 756 mmHg 63%
    08:00 +21°C° 0 mm 5 m/s 756 mmHg 58%
    09:00 +23°C° 0 mm 6 m/s 756 mmHg 54%
    10:00 +24°C° 0 mm 6 m/s 756 mmHg 52%
    11:00 +27°C° 0 mm 6 m/s 756 mmHg 50%
    12:00 +28°C° 0 mm 7 m/s 755 mmHg 48%
    13:00 +28°C° 0 mm 7 m/s 755 mmHg 48%
    14:00 +29°C° 0 mm 6 m/s 755 mmHg 48%
    15:00 +29°C° 0 mm 6 m/s 754 mmHg 49%
    16:00 +28°C° 0,1 mm 5 m/s 754 mmHg 54%
    17:00 +27°C° 0,1 mm 5 m/s 754 mmHg 59%
    18:00 +26°C° 0,1 mm 4 m/s 754 mmHg 64%
    19:00 +25°C° 0,5 mm 3 m/s 754 mmHg 68%
    20:00 +22°C° 0,5 mm 3 m/s 754 mmHg 73%
    21:00 +21°C° 0,5 mm 3 m/s 755 mmHg 78%
    22:00 +20°C° 0,3 mm 2 m/s 755 mmHg 81%
    23:00 +20°C° 0,3 mm 2 m/s 754 mmHg 83%

    Poimâine, 17 August, Vineri

    Timp Temperatura Precipitaţii Vânt Presiune Umiditate
    00:00 +19°C° 0,3 mm 2 m/s 754 mmHg 86%
    01:00 +19°C° 0,3 mm 2 m/s 754 mmHg 88%
    02:00 +19°C° 0,3 mm 2 m/s 754 mmHg 90%
    03:00 +19°C° 0,3 mm 1 m/s 755 mmHg 92%
    04:00 +18°C° 0,1 mm 2 m/s 755 mmHg 92%
    05:00 +19°C° 0,1 mm 2 m/s 755 mmHg 92%
    06:00 +19°C° 0,1 mm 2 m/s 755 mmHg 92%
    07:00 +19°C° 0 mm 2 m/s 755 mmHg 89%
    08:00 +20°C° 0 mm 2 m/s 755 mmHg 87%
    09:00 +21°C° 0 mm 3 m/s 756 mmHg 84%
    10:00 +21°C° 0,2 mm 3 m/s 756 mmHg 82%
    11:00 +21°C° 0,2 mm 3 m/s 756 mmHg 80%
    12:00 +21°C° 0,2 mm 3 m/s 756 mmHg 78%
    13:00 +21°C° 0,2 mm 3 m/s 756 mmHg 76%
    14:00 +22°C° 0,2 mm 3 m/s 756 mmHg 73%
    15:00 +22°C° 0,2 mm 3 m/s 756 mmHg 71%
    16:00 +21°C° 0 mm 3 m/s 756 mmHg 72%
    17:00 +20°C° 0 mm 3 m/s 756 mmHg 74%
    18:00 +20°C° 0 mm 3 m/s 756 mmHg 75%
    19:00 +19°C° 0 mm 3 m/s 756 mmHg 79%
    20:00 +17°C° 0 mm 3 m/s 756 mmHg 82%
    21:00 +16°C° 0 mm 3 m/s 756 mmHg 85%
    22:00 +16°C° 0 mm 3 m/s 757 mmHg 86%
    23:00 +14°C° 0 mm 3 m/s 757 mmHg 87%

    18 August, Sâmbătă

    Timp Temperatura Precipitaţii Vânt Presiune Umiditate
    00:00 +13°C° 0 mm 3 m/s 757 mmHg 88%
    01:00 +13°C° 0 mm 3 m/s 757 mmHg 89%
    02:00 +12°C° 0 mm 3 m/s 757 mmHg 90%
    03:00 +12°C° 0 mm 3 m/s 757 mmHg 91%
    04:00 +12°C° 0 mm 3 m/s 758 mmHg 89%
    05:00 +13°C° 0 mm 3 m/s 758 mmHg 87%
    06:00 +13°C° 0 mm 4 m/s 758 mmHg 85%
    07:00 +14°C° 0 mm 4 m/s 758 mmHg 77%
    08:00 +16°C° 0 mm 5 m/s 758 mmHg 70%
    09:00 +19°C° 0 mm 5 m/s 758 mmHg 62%
    10:00 +19°C° 0 mm 6 m/s 758 mmHg 59%
    11:00 +20°C° 0 mm 6 m/s 758 mmHg 55%
    12:00 +21°C° 0 mm 6 m/s 758 mmHg 52%
    13:00 +21°C° 0 mm 6 m/s 758 mmHg 52%
    14:00 +21°C° 0 mm 6 m/s 758 mmHg 52%
    15:00 +21°C° 0 mm 6 m/s 758 mmHg 53%
    16:00 +20°C° 0 mm 5 m/s 758 mmHg 58%
    17:00 +19°C° 0 mm 5 m/s 758 mmHg 62%
    18:00 +18°C° 0 mm 4 m/s 758 mmHg 67%
    19:00 +15°C° 0 mm 4 m/s 759 mmHg 71%
    20:00 +14°C° 0 mm 3 m/s 759 mmHg 74%
    21:00 +13°C° 0 mm 3 m/s 759 mmHg 77%
    22:00 +12°C° 0 mm 3 m/s 759 mmHg 78%
    23:00 +11°C° 0 mm 3 m/s 759 mmHg 79%

    19 August, Duminică

    Timp Temperatura Precipitaţii Vânt Presiune Umiditate
    00:00 +11°C° 0 mm 3 m/s 759 mmHg 80%
    01:00 +10°C° 0 mm 3 m/s 759 mmHg 81%
    02:00 +10°C° 0 mm 3 m/s 760 mmHg 81%
    03:00 +9°C° 0 mm 3 m/s 760 mmHg 82%
    04:00 +10°C° 0 mm 3 m/s 760 mmHg 80%
    05:00 +10°C° 0 mm 4 m/s 760 mmHg 78%
    06:00 +11°C° 0 mm 4 m/s 760 mmHg 77%
    07:00 +12°C° 0 mm 5 m/s 760 mmHg 71%
    08:00 +14°C° 0 mm 6 m/s 760 mmHg 66%
    09:00 +16°C° 0 mm 6 m/s 760 mmHg 61%
    10:00 +17°C° 0 mm 6 m/s 759 mmHg 59%
    11:00 +19°C° 0 mm 6 m/s 759 mmHg 57%
    12:00 +20°C° 0 mm 6 m/s 759 mmHg 56%
    13:00 +20°C° 0 mm 6 m/s 759 mmHg 55%
    14:00 +20°C° 0 mm 6 m/s 759 mmHg 55%
    15:00 +20°C° 0 mm 6 m/s 758 mmHg 55%
    16:00 +19°C° 0 mm 5 m/s 758 mmHg 59%
    17:00 +19°C° 0 mm 4 m/s 758 mmHg 64%
    18:00 +18°C° 0 mm 3 m/s 758 mmHg 69%
    19:00 +16°C° 0 mm 3 m/s 759 mmHg 73%
    20:00 +14°C° 0 mm 3 m/s 759 mmHg 77%
    21:00 +13°C° 0 mm 3 m/s 759 mmHg 80%
    22:00 +12°C° 0 mm 3 m/s 759 mmHg 82%
    23:00 +13°C° 0 mm 2 m/s 759 mmHg 83%

    20 August, Luni

    Timp Temperatura Precipitaţii Vânt Presiune Umiditate
    00:00 +12°C° 0 mm 2 m/s 759 mmHg 84%
    01:00 +12°C° 0 mm 2 m/s 759 mmHg 84%
    02:00 +10°C° 0 mm 2 m/s 759 mmHg 85%
    03:00 +10°C° 0 mm 2 m/s 759 mmHg 86%
    04:00 +10°C° 0 mm 2 m/s 759 mmHg 85%
    05:00 +12°C° 0 mm 2 m/s 759 mmHg 83%
    06:00 +12°C° 0 mm 2 m/s 759 mmHg 82%
    07:00 +14°C° 0 mm 2 m/s 759 mmHg 74%
    08:00 +16°C° 0 mm 2 m/s 759 mmHg 67%
    09:00 +18°C° 0 mm 2 m/s 759 mmHg 60%
    10:00 +19°C° 0 mm 2 m/s 759 mmHg 55%
    11:00 +20°C° 0 mm 2 m/s 759 mmHg 51%
    12:00 +21°C° 0 mm 2 m/s 758 mmHg 47%
    13:00 +21°C° 0 mm 2 m/s 758 mmHg 46%
    14:00 +21°C° 0 mm 2 m/s 758 mmHg 45%
    15:00 +23°C° 0 mm 1 m/s 758 mmHg 43%
    16:00 +22°C° 0 mm 1 m/s 758 mmHg 48%
    17:00 +21°C° 0 mm 1 m/s 757 mmHg 53%
    18:00 +20°C° 0 mm 1 m/s 757 mmHg 58%
    19:00 +16°C° 0 mm 0 m/s 757 mmHg 60%
    20:00 +15°C° 0 mm 0 m/s 757 mmHg 62%
    21:00 +14°C° 0 mm 0 m/s 757 mmHg 65%
    22:00 +13°C° 0 mm 0 m/s 757 mmHg 66%
    23:00 +13°C° 0 mm 0 m/s 757 mmHg 68%
    Arată mai mult